Stündliche Wetter Aban

Heute, 25 Juni, Freitag

Zeit Temperatur Niederschläge Wind Luftdruck Luftfeuchtigkeit
00:00 +12°C° 0 mm 2 m/S 731 mmHg 92%
01:00 +12°C° 0 mm 2 m/S 731 mmHg 92%
02:00 +12°C° 0 mm 2 m/S 731 mmHg 92%
03:00 +10°C° 0 mm 2 m/S 731 mmHg 93%
04:00 +13°C° 0 mm 2 m/S 731 mmHg 90%
05:00 +14°C° 0 mm 2 m/S 731 mmHg 88%
06:00 +15°C° 0 mm 2 m/S 731 mmHg 85%
07:00 +17°C° 0 mm 2 m/S 731 mmHg 78%
08:00 +19°C° 0 mm 2 m/S 731 mmHg 70%
09:00 +20°C° 0 mm 2 m/S 731 mmHg 63%
10:00 +20°C° 0 mm 2 m/S 731 mmHg 65%
11:00 +20°C° 0 mm 2 m/S 731 mmHg 67%
12:00 +20°C° 0 mm 2 m/S 731 mmHg 70%
13:00 +20°C° 0.2 mm 3 m/S 731 mmHg 72%
14:00 +19°C° 0.2 mm 4 m/S 732 mmHg 75%
15:00 +19°C° 0.2 mm 5 m/S 732 mmHg 77%
16:00 +18°C° 0 mm 4 m/S 732 mmHg 76%
17:00 +17°C° 0 mm 4 m/S 732 mmHg 75%
18:00 +17°C° 0 mm 3 m/S 733 mmHg 74%
19:00 +16°C° 0.1 mm 2 m/S 733 mmHg 78%
20:00 +14°C° 0.1 mm 1 m/S 733 mmHg 83%
21:00 +13°C° 0.1 mm 1 m/S 733 mmHg 87%
22:00 +13°C° 1.1 mm 1 m/S 733 mmHg 90%
23:00 +13°C° 1.1 mm 1 m/S 734 mmHg 93%

Morgen, 26 Juni, Samstag

Zeit Temperatur Niederschläge Wind Luftdruck Luftfeuchtigkeit
00:00 +13°C° 1.1 mm 2 m/S 734 mmHg 96%
01:00 +12°C° 0.1 mm 2 m/S 734 mmHg 96%
02:00 +12°C° 0.1 mm 2 m/S 734 mmHg 96%
03:00 +11°C° 0.1 mm 3 m/S 734 mmHg 96%
04:00 +11°C° 0 mm 3 m/S 735 mmHg 95%
05:00 +11°C° 0 mm 3 m/S 735 mmHg 93%
06:00 +12°C° 0 mm 3 m/S 736 mmHg 92%
07:00 +13°C° 0.1 mm 4 m/S 736 mmHg 82%
08:00 +15°C° 0.1 mm 4 m/S 736 mmHg 72%
09:00 +16°C° 0.1 mm 5 m/S 736 mmHg 62%
10:00 +16°C° 0.2 mm 5 m/S 736 mmHg 63%
11:00 +16°C° 0.2 mm 5 m/S 736 mmHg 65%
12:00 +16°C° 0.2 mm 5 m/S 736 mmHg 66%
13:00 +16°C° 0.1 mm 5 m/S 736 mmHg 63%
14:00 +17°C° 0.1 mm 5 m/S 736 mmHg 59%
15:00 +19°C° 0.1 mm 5 m/S 736 mmHg 55%
16:00 +18°C° 0.1 mm 4 m/S 736 mmHg 58%
17:00 +18°C° 0.1 mm 4 m/S 736 mmHg 62%
18:00 +18°C° 0.1 mm 3 m/S 736 mmHg 65%
19:00 +16°C° 0 mm 3 m/S 736 mmHg 72%
20:00 +14°C° 0 mm 2 m/S 737 mmHg 79%
21:00 +12°C° 0 mm 2 m/S 737 mmHg 87%
22:00 +12°C° 0 mm 2 m/S 737 mmHg 88%
23:00 +10°C° 0 mm 2 m/S 737 mmHg 90%

übermorgen, 27 Juni, Sonntag

Zeit Temperatur Niederschläge Wind Luftdruck Luftfeuchtigkeit
00:00 +9°C° 0 mm 2 m/S 737 mmHg 91%
01:00 +9°C° 0 mm 2 m/S 737 mmHg 92%
02:00 +9°C° 0 mm 2 m/S 738 mmHg 92%
03:00 +8°C° 0 mm 2 m/S 738 mmHg 93%
04:00 +11°C° 0 mm 1 m/S 738 mmHg 87%
05:00 +12°C° 0 mm 1 m/S 738 mmHg 82%
06:00 +14°C° 0 mm 1 m/S 738 mmHg 77%
07:00 +15°C° 0 mm 1 m/S 738 mmHg 71%
08:00 +17°C° 0 mm 2 m/S 738 mmHg 64%
09:00 +18°C° 0 mm 2 m/S 738 mmHg 58%
10:00 +19°C° 0 mm 2 m/S 738 mmHg 55%
11:00 +20°C° 0 mm 2 m/S 738 mmHg 52%
12:00 +21°C° 0 mm 2 m/S 737 mmHg 49%
13:00 +21°C° 0 mm 2 m/S 737 mmHg 50%
14:00 +21°C° 0 mm 2 m/S 737 mmHg 51%
15:00 +20°C° 0 mm 2 m/S 737 mmHg 52%
16:00 +20°C° 0 mm 2 m/S 737 mmHg 57%
17:00 +21°C° 0 mm 1 m/S 737 mmHg 61%
18:00 +20°C° 0 mm 1 m/S 737 mmHg 65%
19:00 +18°C° 0 mm 1 m/S 737 mmHg 71%
20:00 +15°C° 0 mm 1 m/S 737 mmHg 78%
21:00 +13°C° 0 mm 1 m/S 737 mmHg 85%
22:00 +13°C° 0 mm 1 m/S 737 mmHg 85%
23:00 +12°C° 0 mm 1 m/S 738 mmHg 86%

28 Juni, Montag

Zeit Temperatur Niederschläge Wind Luftdruck Luftfeuchtigkeit
00:00 +12°C° 0 mm 1 m/S 738 mmHg 87%
01:00 +11°C° 0 mm 1 m/S 738 mmHg 87%
02:00 +11°C° 0 mm 1 m/S 738 mmHg 87%
03:00 +11°C° 0 mm 1 m/S 738 mmHg 88%
04:00 +11°C° 0 mm 0 m/S 738 mmHg 82%
05:00 +12°C° 0 mm 0 m/S 738 mmHg 77%
06:00 +13°C° 0 mm 0 m/S 738 mmHg 72%
07:00 +15°C° 0 mm 0 m/S 738 mmHg 68%
08:00 +16°C° 0 mm 0 m/S 738 mmHg 65%
09:00 +17°C° 0 mm 0 m/S 738 mmHg 61%
10:00 +17°C° 0 mm 0 m/S 738 mmHg 57%
11:00 +18°C° 0 mm 0 m/S 738 mmHg 53%
12:00 +19°C° 0 mm 0 m/S 738 mmHg 50%
13:00 +19°C° 0 mm 0 m/S 738 mmHg 51%
14:00 +21°C° 0 mm 1 m/S 738 mmHg 53%
15:00 +21°C° 0 mm 1 m/S 738 mmHg 55%
16:00 +20°C° 0.2 mm 1 m/S 738 mmHg 63%
17:00 +19°C° 0.2 mm 1 m/S 738 mmHg 70%
18:00 +17°C° 0.2 mm 2 m/S 738 mmHg 78%
19:00 +16°C° 0 mm 2 m/S 738 mmHg 81%
20:00 +15°C° 0 mm 2 m/S 738 mmHg 85%
21:00 +13°C° 0 mm 1 m/S 739 mmHg 88%
22:00 +13°C° 0 mm 1 m/S 739 mmHg 88%
23:00 +12°C° 0 mm 1 m/S 739 mmHg 89%

29 Juni, Dienstag

Zeit Temperatur Niederschläge Wind Luftdruck Luftfeuchtigkeit
00:00 +12°C° 0 mm 1 m/S 739 mmHg 89%
01:00 +12°C° 0 mm 1 m/S 739 mmHg 89%
02:00 +12°C° 0 mm 1 m/S 739 mmHg 88%
03:00 +12°C° 0 mm 1 m/S 739 mmHg 88%
04:00 +13°C° 0 mm 1 m/S 739 mmHg 85%
05:00 +14°C° 0 mm 1 m/S 739 mmHg 83%
06:00 +15°C° 0 mm 1 m/S 739 mmHg 80%
07:00 +16°C° 0.4 mm 1 m/S 739 mmHg 75%
08:00 +19°C° 0.4 mm 1 m/S 739 mmHg 69%
09:00 +20°C° 0.4 mm 1 m/S 739 mmHg 64%
10:00 +21°C° 0.2 mm 1 m/S 739 mmHg 61%
11:00 +20°C° 0.2 mm 2 m/S 739 mmHg 57%
12:00 +21°C° 0.2 mm 2 m/S 739 mmHg 53%
13:00 +20°C° 0 mm 2 m/S 739 mmHg 54%
14:00 +20°C° 0 mm 2 m/S 739 mmHg 55%
15:00 +21°C° 0 mm 1 m/S 739 mmHg 55%
16:00 +21°C° 0 mm 1 m/S 739 mmHg 57%
17:00 +20°C° 0 mm 1 m/S 739 mmHg 59%
18:00 +20°C° 0 mm 1 m/S 739 mmHg 61%
19:00 +19°C° 0 mm 1 m/S 739 mmHg 63%
20:00 +16°C° 0 mm 1 m/S 739 mmHg 65%
21:00 +15°C° 0 mm 1 m/S 739 mmHg 68%
22:00 +14°C° 0 mm 1 m/S 739 mmHg 69%
23:00 +13°C° 0 mm 1 m/S 739 mmHg 71%

30 Juni, Mittwoch

Zeit Temperatur Niederschläge Wind Luftdruck Luftfeuchtigkeit
00:00 +13°C° 0 mm 1 m/S 739 mmHg 73%
01:00 +13°C° 0 mm 1 m/S 739 mmHg 71%
02:00 +13°C° 0 mm 1 m/S 739 mmHg 70%
03:00 +12°C° 0 mm 0 m/S 738 mmHg 68%
04:00 +14°C° 0 mm 1 m/S 739 mmHg 66%
05:00 +15°C° 0 mm 1 m/S 739 mmHg 65%
06:00 +16°C° 0 mm 1 m/S 739 mmHg 63%
07:00 +19°C° 0 mm 1 m/S 739 mmHg 57%
08:00 +20°C° 0 mm 1 m/S 739 mmHg 51%
09:00 +22°C° 0 mm 1 m/S 739 mmHg 45%
10:00 +23°C° 0 mm 1 m/S 738 mmHg 43%
11:00 +23°C° 0 mm 2 m/S 738 mmHg 41%
12:00 +23°C° 0 mm 2 m/S 738 mmHg 39%
13:00 +23°C° 0 mm 2 m/S 737 mmHg 41%
14:00 +23°C° 0 mm 2 m/S 737 mmHg 42%
15:00 +23°C° 0 mm 2 m/S 737 mmHg 43%
16:00 +21°C° 0 mm 2 m/S 737 mmHg 49%
17:00 +21°C° 0 mm 2 m/S 737 mmHg 54%
18:00 +21°C° 0 mm 1 m/S 737 mmHg 59%
19:00 +20°C° 0 mm 1 m/S 737 mmHg 60%
20:00 +18°C° 0 mm 1 m/S 737 mmHg 62%
21:00 +16°C° 0 mm 1 m/S 736 mmHg 63%
22:00 +16°C° 0 mm 1 m/S 736 mmHg 64%
23:00 +15°C° 0 mm 1 m/S 736 mmHg 65%
Mehr zeigen

Wir brauchen deine Erlaubnis

Meteoprog und unser Service Anbieter werden persönliche Daten aufbewahren, so wie Cookies, Geräte Bezeichnung oder ähnliche Technologien von deinem Gerät und Prozess, so wie Persönliche Daten Inhalte und Werbungen, genauso wie social Media und den Verkehr zu analysieren.

  • Aufbewahrung und/oder Zugang zu deiner Geräte Informationen.

    Cookies, Geräte Bezeichnung oder andere Informationen, können aufbewahrt oder Zugang zu deinem Gerät erhalten, für den Grund, der oben angegeben wird.

  • Personalisierte Werbung und Inhalte, Messungen, Einblick in das Publikum und Produkt Entwicklung.

    Werbungen und Inhalte können personalisiert werden, basierend auf ein Profil. Mehr Daten können besser personalisierte Werbungen und Inhalte hinzufügen. Werbung und Inhalte können gezeigt und gemessen werden. Einblicke über das Publikum, welche die Werbung gesehen haben und den Inhalt, können abgeleitet werden. So wie Daten können genutzt werden, um es zu verbessern oder die Benutzer Erfahrung zu verbessern das System und die Software.

Wenn du “Ich stimme zu” klickst, erlaubst du uns, die Cookies zu benutzen die Geräte Bezeichnung, den Web oder ähnliche Technologien zu benutzen. Deine Settings, können in deinem Gerät bei deinem Browser geändert werden.

Für den bestimmten Zweck, berechtigten Interessen beruhen darauf, mehr als auf den Inhalt. Du kannst mehr darüber in unseren Privaten und Cookie Politik lesen.